Weather in Leshchinovo

Russia / Penza Oblast     53°23′20″N   43°55′45″E
temp.,
°C
wind,
m/s
gust,
m/s
humid.,
%
clouds,
%
prec.,
mm/h
press.,
hPa
HPBL,
m
28 february, sun
sun2800:00−15nnw479583 0.0 1011156
03:00−17nw369756 0.0 1013123
06:00−17nw369761 0.0 1014127
09:00−15nnw479564 0.0 1014295
12:00−12nnw469097 0.0 1015489
15:00−11nw469099 0.0 1016508
18:00−14nnw239497 0.0 101726
21:00−15nnw239565 0.0 102021
1 march, mon
mon100:00−17nnw22952 0.0 102120
03:00−18nnw22951 0.0 102220
06:00−18nnw23960 0.0 102320
09:00−15nw23950 0.0 1025102
12:00−10wnw239062 0.0 1025288
15:00−8w359281 0.0 1024385
18:00−11sw469789 0.0 102291
21:00−8wsw5129692 0.1 1021293
2 march, tue
tue200:00−5sw61294100 0.1 1017432
03:00−3wsw81496100 0.8 1013537
06:00−3wsw81595100 1.1 1009644
09:000wsw81498100 2.6 1006825
12:000wnw61199100 1.4 1004635
15:000nw61191100 2.4 1004852
18:00−2nw5129088 0.1 1005497
21:00−2wnw5119691 0.3 1006459
3 march, wed
wed300:00−3nw6129599 0.3 1006538
03:00−4nw5119597 0.4 1007437
06:00−5nw5119597 0.3 1007445
09:00−5nw6129396 0.5 1009679
12:00−4nw71190100 0.2 1010824
15:00−4nw71190100 0.4 1012979
18:00−5nw61290100 0.1 1013636
21:00−8nw41092100 0.2 1016240
4 march, thu
thu400:00−10wnw479758 0.0 1017126
03:00−11w349759 0.0 101767
06:00−10wsw489783 0.1 1017160
09:00−6wsw6119383 0.1 1016353
12:00−3wsw8139083 0.0 1014610
15:00−1wsw8148690 0.0 1012748
18:00−3sw71687100 0.0 1010588
21:00−3sw8178676 0.0 1009631